Time,TemperatureF,DewpointF,PressureIn,WindDirection,WindDirectionDegrees,WindSpeedMPH,WindSpeedGustMPH,Humidity,HourlyPrecipIn,Conditions,Clouds,dailyrainin,SoftwareType,DateUTC
2013-03-24 00:02:00,30.0,22.0,30.02,North,11,2.0,11.0,71,0.00,,,0.00,,2013-03-24 05:02:00,
2013-03-24 00:12:00,30.0,22.0,30.02,North,11,2.0,11.0,71,0.00,,,0.00,,2013-03-24 05:12:00,
2013-03-24 00:22:00,30.0,22.0,30.02,North,11,2.0,11.0,71,0.00,,,0.00,,2013-03-24 05:22:00,
2013-03-24 00:32:00,30.0,22.0,30.02,North,355,2.0,3.0,71,0.00,,,0.00,,2013-03-24 05:32:00,
2013-03-24 00:42:00,30.0,22.0,30.02,North,355,2.0,3.0,71,0.00,,,0.00,,2013-03-24 05:42:00,
2013-03-24 00:52:00,30.0,21.0,30.02,NNW,345,2.0,4.0,70,0.00,,,0.00,,2013-03-24 05:52:00,
2013-03-24 01:02:00,29.0,21.0,30.02,North,353,1.0,4.0,71,0.00,,,0.00,,2013-03-24 06:02:00,
2013-03-24 01:12:00,29.0,21.0,30.02,North,353,1.0,4.0,71,0.00,,,0.00,,2013-03-24 06:12:00,
2013-03-24 01:22:00,30.0,22.0,30.03,NW,317,2.0,4.0,72,0.00,,,0.00,,2013-03-24 06:22:00,
2013-03-24 01:32:00,30.0,22.0,30.02,NW,319,2.0,4.0,73,0.00,,,0.00,,2013-03-24 06:32:00,
2013-03-24 01:42:00,30.0,22.0,30.02,NW,319,2.0,4.0,73,0.00,,,0.00,,2013-03-24 06:42:00,
2013-03-24 01:52:00,30.0,23.0,30.02,NW,314,2.0,4.0,74,0.00,,,0.00,,2013-03-24 06:52:00,
2013-03-24 02:02:00,30.0,23.0,30.01,NNW,341,2.0,6.0,74,0.00,,,0.00,,2013-03-24 07:02:00,
2013-03-24 02:12:00,30.0,23.0,30.01,NNW,341,2.0,6.0,74,0.00,,,0.00,,2013-03-24 07:12:00,
2013-03-24 02:22:00,30.0,23.0,30.01,NNW,341,2.0,6.0,74,0.00,,,0.00,,2013-03-24 07:22:00,
2013-03-24 02:32:00,30.0,23.0,30.01,North,351,1.0,4.0,75,0.00,,,0.00,,2013-03-24 07:32:00,
2013-03-24 02:42:00,30.0,23.0,30.01,North,351,1.0,4.0,75,0.00,,,0.00,,2013-03-24 07:42:00,
2013-03-24 02:52:00,30.0,23.0,30.01,NNW,347,2.0,6.0,76,0.00,,,0.00,,2013-03-24 07:52:00,
2013-03-24 03:03:00,30.0,23.0,30.01,NNW,347,2.0,6.0,76,0.00,,,0.00,,2013-03-24 08:03:00,
2013-03-24 03:12:00,30.0,23.0,30.01,NNW,347,2.0,6.0,76,0.00,,,0.00,,2013-03-24 08:12:00,
2013-03-24 03:22:00,30.0,24.0,29.98,North,359,1.0,4.0,78,0.00,,,0.00,,2013-03-24 08:22:00,
2013-03-24 03:32:00,30.0,24.0,29.98,NNW,346,2.0,3.0,79,0.00,,,0.00,,2013-03-24 08:32:00,
2013-03-24 03:42:00,30.0,24.0,29.98,NNW,346,2.0,3.0,79,0.00,,,0.00,,2013-03-24 08:42:00,
2013-03-24 03:52:00,30.0,25.0,29.98,NNW,342,2.0,4.0,80,0.00,,,0.00,,2013-03-24 08:52:00,
2013-03-24 04:02:00,31.0,25.0,29.96,NE,50,2.0,7.0,79,0.00,,,0.00,,2013-03-24 09:02:00,
2013-03-24 04:12:00,31.0,25.0,29.96,NE,50,2.0,7.0,79,0.00,,,0.00,,2013-03-24 09:12:00,
2013-03-24 04:22:00,31.0,25.0,29.96,NNE,29,1.0,4.0,79,0.00,,,0.00,,2013-03-24 09:22:00,
2013-03-24 04:33:00,31.0,25.0,29.96,NNE,29,1.0,4.0,79,0.00,,,0.00,,2013-03-24 09:33:00,
2013-03-24 04:42:00,31.0,25.0,29.96,NNE,29,1.0,4.0,79,0.00,,,0.00,,2013-03-24 09:42:00,
2013-03-24 04:52:00,31.0,25.0,29.95,NE,38,2.0,4.0,79,0.00,,,0.00,,2013-03-24 09:52:00,
2013-03-24 05:03:00,32.0,26.0,29.96,NE,48,1.0,4.0,79,0.00,,,0.00,,2013-03-24 10:03:00,
2013-03-24 05:12:00,32.0,26.0,29.96,NE,48,1.0,4.0,79,0.00,,,0.00,,2013-03-24 10:12:00,
2013-03-24 05:22:00,32.0,26.0,29.95,NNE,26,2.0,5.0,79,0.00,,,0.00,,2013-03-24 10:22:00,
2013-03-24 05:33:00,31.0,25.0,29.95,NNE,12,2.0,7.0,79,0.00,,,0.00,,2013-03-24 10:33:00,
2013-03-24 05:42:00,31.0,25.0,29.95,NNE,12,2.0,7.0,79,0.00,,,0.00,,2013-03-24 10:42:00,
2013-03-24 05:52:00,32.0,26.0,29.95,NNE,30,2.0,5.0,79,0.00,,,0.00,,2013-03-24 10:52:00,
2013-03-24 06:03:00,32.0,26.0,29.95,NE,39,2.0,6.0,79,0.00,,,0.00,,2013-03-24 11:03:00,
2013-03-24 06:12:00,32.0,26.0,29.95,NE,39,2.0,6.0,79,0.00,,,0.00,,2013-03-24 11:12:00,
2013-03-24 06:22:00,32.0,26.0,29.94,NE,43,2.0,6.0,79,0.00,,,0.00,,2013-03-24 11:22:00,
2013-03-24 06:32:00,32.0,26.0,29.92,NE,49,2.0,7.0,78,0.00,,,0.00,,2013-03-24 11:32:00,
2013-03-24 06:42:00,32.0,26.0,29.92,NE,49,2.0,7.0,78,0.00,,,0.00,,2013-03-24 11:42:00,
2013-03-24 06:52:00,31.0,25.0,29.92,NE,38,4.0,8.0,79,0.00,,,0.00,,2013-03-24 11:52:00,
2013-03-24 07:02:00,31.0,25.0,29.91,NE,47,4.0,7.0,79,0.00,,,0.00,,2013-03-24 12:02:00,
2013-03-24 07:12:00,31.0,25.0,29.91,NE,47,4.0,7.0,79,0.00,,,0.00,,2013-03-24 12:12:00,
2013-03-24 07:22:00,31.0,25.0,29.91,NE,45,3.0,8.0,79,0.00,,,0.00,,2013-03-24 12:22:00,
2013-03-24 07:32:00,32.0,26.0,29.91,NE,50,3.0,10.0,79,0.00,,,0.00,,2013-03-24 12:32:00,
2013-03-24 07:42:00,32.0,26.0,29.91,NE,50,3.0,10.0,79,0.00,,,0.00,,2013-03-24 12:42:00,
2013-03-24 07:52:00,32.0,26.0,29.92,NE,45,2.0,9.0,78,0.00,,,0.00,,2013-03-24 12:52:00,
2013-03-24 08:02:00,32.0,26.0,29.91,ENE,64,3.0,8.0,78,0.00,,,0.00,,2013-03-24 13:02:00,
2013-03-24 08:12:00,32.0,26.0,29.91,ENE,64,3.0,8.0,78,0.00,,,0.00,,2013-03-24 13:12:00,
2013-03-24 08:22:00,32.0,26.0,29.91,NE,39,2.0,6.0,78,0.00,,,0.00,,2013-03-24 13:22:00,
2013-03-24 08:32:00,32.0,26.0,29.91,NE,50,2.0,9.0,79,0.00,,,0.00,,2013-03-24 13:32:00,
2013-03-24 08:42:00,32.0,26.0,29.91,NE,50,2.0,9.0,79,0.00,,,0.00,,2013-03-24 13:42:00,
2013-03-24 08:52:00,32.0,25.0,29.90,NE,40,3.0,7.0,76,0.00,,,0.00,,2013-03-24 13:52:00,
2013-03-24 09:02:00,32.0,25.0,29.91,ENE,58,2.0,11.0,75,0.00,,,0.00,,2013-03-24 14:02:00,
2013-03-24 09:12:00,32.0,25.0,29.91,ENE,58,2.0,11.0,75,0.00,,,0.00,,2013-03-24 14:12:00,
2013-03-24 09:22:00,32.0,25.0,29.90,ENE,58,3.0,7.0,75,0.00,,,0.00,,2013-03-24 14:22:00,
2013-03-24 09:32:00,32.0,25.0,29.90,NNE,32,4.0,7.0,74,0.00,,,0.00,,2013-03-24 14:32:00,
2013-03-24 09:42:00,32.0,25.0,29.90,NNE,32,4.0,7.0,74,0.00,,,0.00,,2013-03-24 14:42:00,
2013-03-24 09:52:00,32.0,25.0,29.90,NNE,32,4.0,7.0,74,0.00,,,0.00,,2013-03-24 14:52:00,
2013-03-24 10:02:00,33.0,26.0,29.90,NE,47,2.0,10.0,75,0.00,,,0.00,,2013-03-24 15:02:00,
2013-03-24 10:12:00,33.0,26.0,29.90,NE,47,2.0,10.0,75,0.00,,,0.00,,2013-03-24 15:12:00,
2013-03-24 10:22:00,33.0,26.0,29.89,NE,44,2.0,7.0,76,0.00,,,0.00,,2013-03-24 15:22:00,
2013-03-24 10:33:00,33.0,26.0,29.89,NE,44,2.0,7.0,76,0.00,,,0.00,,2013-03-24 15:33:00,
2013-03-24 10:43:00,33.0,26.0,29.89,NE,44,2.0,7.0,76,0.00,,,0.00,,2013-03-24 15:43:00,
2013-03-24 10:53:00,33.0,26.0,29.89,NE,44,2.0,7.0,76,0.00,,,0.00,,2013-03-24 15:53:00,
2013-03-24 11:02:00,38.0,27.0,29.87,NE,34,3.0,9.0,64,0.00,,,0.00,,2013-03-24 16:02:00,
2013-03-24 11:12:00,38.0,27.0,29.87,NE,34,3.0,9.0,64,0.00,,,0.00,,2013-03-24 16:12:00,
2013-03-24 11:23:00,38.0,27.0,29.86,NNE,15,3.0,8.0,64,0.00,,,0.00,,2013-03-24 16:23:00,
2013-03-24 11:33:00,38.0,27.0,29.86,NNE,15,3.0,8.0,64,0.00,,,0.00,,2013-03-24 16:33:00,
2013-03-24 11:42:00,38.0,27.0,29.86,NNE,15,3.0,8.0,64,0.00,,,0.00,,2013-03-24 16:42:00,
2013-03-24 11:52:00,38.0,27.0,29.86,NNE,15,3.0,8.0,64,0.00,,,0.00,,2013-03-24 16:52:00,
2013-03-24 13:33:00,37.0,27.0,29.82,NE,47,6.0,15.0,67,0.00,,,0.00,,2013-03-24 18:33:00,
2013-03-24 13:43:00,37.0,27.0,29.82,NE,47,6.0,15.0,67,0.00,,,0.00,,2013-03-24 18:43:00,
2013-03-24 13:52:00,37.0,27.0,29.81,NE,43,4.0,15.0,68,0.00,,,0.00,,2013-03-24 18:52:00,
2013-03-24 14:02:00,40.0,26.0,29.79,NNE,14,6.0,15.0,58,0.00,,,0.00,,2013-03-24 19:02:00,
2013-03-24 14:12:00,40.0,26.0,29.79,NNE,14,6.0,15.0,58,0.00,,,0.00,,2013-03-24 19:12:00,
2013-03-24 14:22:00,40.0,26.0,29.79,NNE,14,6.0,15.0,58,0.00,,,0.00,,2013-03-24 19:22:00,
2013-03-24 14:32:00,39.0,27.0,29.79,NE,40,2.0,8.0,63,0.00,,,0.00,,2013-03-24 19:32:00,
2013-03-24 14:42:00,39.0,27.0,29.79,NE,40,2.0,8.0,63,0.00,,,0.00,,2013-03-24 19:42:00,
2013-03-24 14:53:00,37.0,27.0,29.78,NNE,18,2.0,9.0,67,0.00,,,0.00,,2013-03-24 19:53:00,
2013-03-24 15:02:00,35.0,27.0,29.78,NE,47,5.0,10.0,71,0.00,,,0.00,,2013-03-24 20:02:00,
2013-03-24 15:12:00,35.0,27.0,29.78,NE,47,5.0,10.0,71,0.00,,,0.00,,2013-03-24 20:12:00,
2013-03-24 15:22:00,36.0,28.0,29.77,NNE,20,4.0,11.0,72,0.00,,,0.00,,2013-03-24 20:22:00,
2013-03-24 15:32:00,36.0,28.0,29.77,NNE,20,4.0,11.0,72,0.00,,,0.00,,2013-03-24 20:32:00,
2013-03-24 15:42:00,36.0,28.0,29.77,NNE,20,4.0,11.0,72,0.00,,,0.00,,2013-03-24 20:42:00,
2013-03-24 15:53:00,36.0,28.0,29.77,NNE,20,4.0,11.0,72,0.00,,,0.00,,2013-03-24 20:53:00,
2013-03-24 16:02:00,35.0,28.0,29.75,NNE,27,3.0,12.0,75,0.00,,,0.00,,2013-03-24 21:02:00,
2013-03-24 16:12:00,35.0,28.0,29.75,NNE,27,3.0,12.0,75,0.00,,,0.00,,2013-03-24 21:12:00,
2013-03-24 16:22:00,34.0,28.0,29.74,NNE,22,3.0,15.0,77,0.00,,,0.00,,2013-03-24 21:22:00,
2013-03-24 16:33:00,34.0,28.0,29.74,NNE,22,3.0,15.0,77,0.00,,,0.00,,2013-03-24 21:33:00,
2013-03-24 16:43:00,34.0,28.0,29.74,NNE,22,3.0,15.0,77,0.00,,,0.00,,2013-03-24 21:43:00,
2013-03-24 16:53:00,33.0,28.0,29.72,NNE,18,4.0,10.0,83,0.00,,,0.00,,2013-03-24 21:53:00,
2013-03-24 17:02:00,33.0,29.0,29.72,North,3,4.0,13.0,84,0.00,,,0.00,,2013-03-24 22:02:00,
2013-03-24 17:13:00,33.0,29.0,29.72,North,3,4.0,13.0,84,0.00,,,0.00,,2013-03-24 22:13:00,
2013-03-24 17:23:00,33.0,28.0,29.72,NNE,13,4.0,16.0,83,0.00,,,0.00,,2013-03-24 22:23:00,
2013-03-24 17:33:00,33.0,28.0,29.72,NNE,13,4.0,16.0,83,0.00,,,0.00,,2013-03-24 22:33:00,
2013-03-24 17:42:00,33.0,28.0,29.72,NNE,13,4.0,16.0,83,0.00,,,0.00,,2013-03-24 22:42:00,
2013-03-24 17:52:00,32.0,27.0,29.72,North,357,6.0,17.0,80,0.00,,,0.00,,2013-03-24 22:52:00,
2013-03-24 18:03:00,32.0,27.0,29.72,North,357,6.0,17.0,80,0.00,,,0.00,,2013-03-24 23:03:00,
2013-03-24 18:12:00,32.0,27.0,29.72,North,357,6.0,17.0,80,0.00,,,0.00,,2013-03-24 23:12:00,
2013-03-24 18:22:00,32.0,25.0,29.73,North,355,5.0,17.0,76,0.00,,,0.00,,2013-03-24 23:22:00,
2013-03-24 18:32:00,32.0,27.0,29.74,North,358,4.0,17.0,80,0.00,,,0.00,,2013-03-24 23:32:00,
2013-03-24 18:42:00,32.0,27.0,29.74,North,358,4.0,17.0,80,0.00,,,0.00,,2013-03-24 23:42:00,
2013-03-24 18:53:00,32.0,27.0,29.74,North,358,4.0,17.0,80,0.00,,,0.00,,2013-03-24 23:53:00,
2013-03-24 19:02:00,32.0,27.0,29.75,North,359,5.0,15.0,82,0.00,,,0.00,,2013-03-25 00:02:00,
2013-03-24 19:12:00,32.0,27.0,29.75,North,359,5.0,15.0,82,0.00,,,0.00,,2013-03-25 00:12:00,
2013-03-24 19:22:00,32.0,26.0,29.75,NNE,29,8.0,15.0,79,0.00,,,0.00,,2013-03-25 00:22:00,
2013-03-24 19:32:00,32.0,26.0,29.76,North,11,4.0,15.0,79,0.00,,,0.00,,2013-03-25 00:32:00,
2013-03-24 19:42:00,32.0,26.0,29.76,North,11,4.0,15.0,79,0.00,,,0.00,,2013-03-25 00:42:00,
2013-03-24 19:53:00,32.0,26.0,29.75,NNE,17,4.0,11.0,78,0.00,,,0.00,,2013-03-25 00:53:00,
2013-03-24 20:02:00,32.0,26.0,29.76,NNE,16,4.0,17.0,77,0.00,,,0.00,,2013-03-25 01:02:00,
2013-03-24 20:12:00,32.0,26.0,29.76,NNE,16,4.0,17.0,77,0.00,,,0.00,,2013-03-25 01:12:00,
2013-03-24 20:22:00,31.0,24.0,29.77,North,2,7.0,15.0,76,0.00,,,0.00,,2013-03-25 01:22:00,
2013-03-24 20:32:00,31.0,24.0,29.77,North,357,5.0,19.0,74,0.00,,,0.00,,2013-03-25 01:32:00,
2013-03-24 20:42:00,31.0,24.0,29.77,North,357,5.0,19.0,74,0.00,,,0.00,,2013-03-25 01:42:00,
2013-03-24 20:52:00,31.0,23.0,29.78,North,3,8.0,14.0,73,0.00,,,0.00,,2013-03-25 01:52:00,
2013-03-24 21:02:00,31.0,23.0,29.78,NNW,338,8.0,17.0,72,0.00,,,0.00,,2013-03-25 02:02:00,
2013-03-24 21:12:00,31.0,23.0,29.78,NNW,338,8.0,17.0,72,0.00,,,0.00,,2013-03-25 02:12:00,
2013-03-24 21:22:00,31.0,23.0,29.78,NNW,338,8.0,17.0,72,0.00,,,0.00,,2013-03-25 02:22:00,
2013-03-24 21:32:00,31.0,23.0,29.78,North,357,8.0,13.0,72,0.00,,,0.00,,2013-03-25 02:32:00,
2013-03-24 21:42:00,31.0,23.0,29.78,North,357,8.0,13.0,72,0.00,,,0.00,,2013-03-25 02:42:00,
2013-03-24 21:52:00,31.0,23.0,29.78,NNW,340,9.0,15.0,72,0.00,,,0.00,,2013-03-25 02:52:00,
2013-03-24 22:02:00,31.0,23.0,29.77,North,352,9.0,21.0,72,0.00,,,0.00,,2013-03-25 03:02:00,
2013-03-24 22:13:00,31.0,23.0,29.77,North,352,9.0,21.0,72,0.00,,,0.00,,2013-03-25 03:13:00,
2013-03-24 22:22:00,31.0,23.0,29.77,North,356,8.0,17.0,72,0.00,,,0.00,,2013-03-25 03:22:00,
2013-03-24 22:33:00,31.0,23.0,29.77,North,3,6.0,15.0,72,0.00,,,0.00,,2013-03-25 03:33:00,
2013-03-24 22:42:00,31.0,23.0,29.77,North,350,4.0,14.0,73,0.00,,,0.00,,2013-03-25 03:42:00,
2013-03-24 22:53:00,31.0,23.0,29.77,North,350,4.0,14.0,73,0.00,,,0.00,,2013-03-25 03:53:00,
2013-03-24 23:02:00,31.0,23.0,29.78,NNW,348,10.0,17.0,72,0.00,,,0.00,,2013-03-25 04:02:00,
2013-03-24 23:12:00,31.0,23.0,29.78,NNW,348,10.0,17.0,72,0.00,,,0.00,,2013-03-25 04:12:00,
2013-03-24 23:22:00,31.0,23.0,29.77,NNW,340,8.0,19.0,72,0.00,,,0.00,,2013-03-25 04:22:00,
2013-03-24 23:32:00,31.0,23.0,29.77,NE,54,10.0,19.0,72,0.00,,,0.00,,2013-03-25 04:32:00,
2013-03-24 23:43:00,31.0,23.0,29.77,NE,54,10.0,19.0,72,0.00,,,0.00,,2013-03-25 04:43:00,
2013-03-24 23:52:00,31.0,24.0,29.76,NNW,346,8.0,17.0,75,0.00,,,0.00,,2013-03-25 04:52:00,